Location: Cincinnati Observatory Center
(39.1389°N, 84.4225°W)
Time: 02:55:22
(UTC-04:00)

Amateur Radio Satellites - All Passes

Search period start: 02 September 2014 02:25
Search period end: 03 September 2014 02:25
Location: Cincinnati Observatory Center, 39.1389°N, 84.4225°W

Satellite Date Start Highest point End Downlink Frequencies (MHz)
Time Altitude Azimuth
PCSat 02 Sep 02:36:26 02:41:53 77° 61° (ENE) 02:47:17 145.825 MHz
Oscar 19 02 Sep 02:40:01 02:44:47 36° 97° (E) 02:49:31 437.125 CW, 437.150 USB
AO-Echo 02 Sep 02:49:32 02:52:54 19° 94° (E) 02:56:16 ?
Oscar 16 02 Sep 03:15:01 03:20:15 82° 103° (ESE) 03:25:26 437.025 USB, Beacon 2401.1428
Oscar 10/S400 02 Sep 03:17:18 04:28:39 44° 227° (SW) 09:59:28 145.825 - 145.975 CW/USB, Beacon 145.810 USB
ITAMSAT 1 02 Sep 03:17:46 03:22:30 35° 98° (E) 03:27:13 435.822 SSB
SO-50 02 Sep 03:22:34 03:26:30 31° 113° (ESE) 03:30:31 436.795 FM
KITSAT 1 02 Sep 03:23:40 03:26:42 12° 336° (NNW) 03:29:44 435.175 FM
Uribyol 2 02 Sep 03:26:55 03:31:56 46° 99° (E) 03:36:54 436.500 FM
JAS-1B 02 Sep 03:32:56 03:39:08 44° 97° (E) 03:44:38 435.800 - 435.900 CW/SSB
TMSAT-1 02 Sep 03:40:12 03:43:55 19° 93° (E) 03:47:37 436.925 FM
AO-27 02 Sep 03:47:09 03:52:21 70° 102° (ESE) 03:57:31 436.795 MHz FM
Sapphire 02 Sep 03:51:14 03:55:42 27° 252° (WSW) 04:00:09 437.095 MHz 1200 baud AX-25 AFSK
OPAL 02 Sep 04:16:58 04:21:04 25° 64° (ENE) 04:25:13 ?
Oscar 19 02 Sep 04:19:40 04:23:56 27° 293° (WNW) 04:28:12 437.125 CW, 437.150 USB
PCSat 02 Sep 04:22:09 04:24:34 13° 257° (WSW) 04:26:59 145.825 MHz
AO-Echo 02 Sep 04:27:27 04:31:49 40° 289° (WNW) 04:36:13 ?
Gurwin Techsat 1B 02 Sep 04:28:52 04:34:12 78° 103° (ESE) 04:39:30 435.225 FM
Oscar 16 02 Sep 04:56:45 04:58:52 13° 300° (WNW) 05:00:59 437.025 USB, Beacon 2401.1428
ITAMSAT 1 02 Sep 04:57:32 05:01:50 27° 293° (WNW) 05:06:08 435.822 SSB
SO-50 02 Sep 05:03:10 05:07:03 28° 311° (NW) 05:11:00 436.795 FM
Uribyol 2 02 Sep 05:07:13 05:11:03 21° 295° (WNW) 05:14:54 436.500 FM
UOSAT-12 02 Sep 05:08:29 05:12:29 30° 113° (ESE) 05:16:34 437.025 FM, 437.400 FM
TMSAT-1 02 Sep 05:18:59 05:24:06 50° 288° (WNW) 05:29:11 436.925 FM
Uosat F 02 Sep 05:20:04 05:24:28 30° 97° (E) 05:28:51 435.120 FM
JAS-1B 02 Sep 05:24:10 05:29:25 26° 299° (WNW) 05:34:11 435.800 - 435.900 CW/SSB
AO-27 02 Sep 05:28:29 05:31:15 15° 299° (WNW) 05:34:02 436.795 MHz FM
AO-7 02 Sep 05:33:51 05:41:48 48° 101° (E) 05:49:41 29.400 - 29.500 MHz
OPAL 02 Sep 05:55:02 05:59:43 38° 260° (W) 06:04:30 ?
STRAND 1 02 Sep 06:07:24 06:09:15 12° 60° (ENE) 06:11:06 ?
Gurwin Techsat 1B 02 Sep 06:10:56 06:13:28 14° 299° (WNW) 06:16:01 435.225 FM
Hamsat 02 Sep 06:25:31 06:27:28 13° 91° (E) 06:29:25 145.90 MHz
JAS-2 02 Sep 06:30:27 06:34:00 18° 94° (E) 06:37:43 435.800 - 435.900 CW/SSB, 435.910 FM
UOSAT-12 02 Sep 06:48:28 06:52:35 31° 310° (NW) 06:56:46 437.025 FM, 437.400 FM
Uosat F 02 Sep 06:58:53 07:03:10 29° 293° (WNW) 07:07:25 435.120 FM
Saudisat 1A 02 Sep 07:10:56 07:14:56 32° 51° (NE) 07:18:54 436.775 MHz
KITSAT 1 02 Sep 07:20:07 07:26:12 22° 39° (NE) 07:32:14 435.175 FM
RS-15 02 Sep 07:23:33 07:33:41 43° 109° (ESE) 07:43:38 29.354 - 29.394 USB, Beacon 29.352 USB
AO-7 02 Sep 07:26:58 07:34:22 38° 299° (WNW) 07:41:45 29.400 - 29.500 MHz
STRAND 1 02 Sep 07:42:37 07:47:43 83° 257° (WSW) 07:52:50 ?
Hamsat 02 Sep 07:59:31 08:03:44 51° 286° (WNW) 08:07:53 145.90 MHz
JAS-2 02 Sep 08:14:12 08:19:21 54° 287° (WNW) 08:24:58 435.800 - 435.900 CW/SSB, 435.910 FM
SO-67 02 Sep 08:38:32 08:41:59 63° 100° (E) 08:45:24 435.3500 MHz FM
Saudisat 1A 02 Sep 08:50:45 08:54:22 25° 248° (WSW) 08:57:59 436.775 MHz
KITSAT 1 02 Sep 09:14:40 09:22:48 85° 61° (ENE) 09:30:52 435.175 FM
RS-15 02 Sep 09:34:58 09:45:43 54° 310° (NW) 09:56:24 29.354 - 29.394 USB, Beacon 29.352 USB
ISS 02 Sep 09:46:36 09:49:32 30° 134° (SE) 09:52:29 145.800 FM
UKube-1 02 Sep 09:59:54 10:01:50 13° 92° (E) 10:03:46 145.840 MHz, 145.915 MHz
HO-68 02 Sep 10:03:51 10:10:26 38° 98° (E) 10:16:58 435.675 MHz FM
KITSAT 1 02 Sep 11:12:03 11:17:09 19° 258° (WSW) 11:22:16 435.175 FM
ISS 02 Sep 11:23:15 11:26:14 30° 330° (NNW) 11:29:14 145.800 FM
PANSAT 02 Sep 11:30:21 11:32:00 12° 167° (SSE) 11:33:39 not established
UKube-1 02 Sep 11:34:06 11:38:20 52° 287° (WNW) 11:42:32 145.840 MHz, 145.915 MHz
Oscar 11 02 Sep 11:37:11 11:41:33 73° 284° (WNW) 11:45:53 145.825 FM, Beacon 2401.500 USB
HO-68 02 Sep 11:51:32 11:58:05 40° 295° (WNW) 12:04:37 435.675 MHz FM
RS-15 02 Sep 11:53:47 12:01:21 20° 340° (NNW) 12:09:00 29.354 - 29.394 USB, Beacon 29.352 USB
SO-50 02 Sep 11:54:56 11:58:55 25° 48° (NE) 12:02:55 436.795 FM
FUNcube-1 02 Sep 12:10:22 12:14:57 82° 284° (WNW) 12:19:33 145.950 - 145.970 MHz USB
MaSat-1 02 Sep 12:54:40 12:59:06 36° 107° (ESE) 13:03:47 437.345 MHz
Oscar 16 02 Sep 12:55:03 12:57:22 13° 60° (ENE) 12:59:40 437.025 USB, Beacon 2401.1428
ISS 02 Sep 13:02:47 13:03:49 11° 350° (N) 13:04:50 145.800 FM
PANSAT 02 Sep 13:08:58 13:11:30 17° 180° (S) 13:14:03 not established
AO-27 02 Sep 13:28:58 13:30:41 12° 59° (ENE) 13:32:23 436.795 MHz FM
SO-50 02 Sep 13:35:06 13:39:37 41° 245° (WSW) 13:44:09 436.795 FM
UOSAT-12 02 Sep 13:39:03 13:42:48 23° 46° (NE) 13:46:30 437.025 FM, 437.400 FM
Oscar 19 02 Sep 13:55:43 14:00:38 47° 71° (ENE) 14:05:36 437.125 CW, 437.150 USB
AO-Echo 02 Sep 14:01:24 14:05:23 25° 67° (ENE) 14:09:17 ?
RS-15 02 Sep 14:12:13 14:19:39 20° 18° (NNE) 14:27:11 29.354 - 29.394 USB, Beacon 29.352 USB
Gurwin Techsat 1B 02 Sep 14:12:20 14:14:55 14° 61° (ENE) 14:17:30 435.225 FM
JAS-1B 02 Sep 14:13:12 14:22:11 46° 67° (ENE) 14:30:14 435.800 - 435.900 CW/SSB
Oscar 16 02 Sep 14:30:51 14:36:01 78° 257° (WSW) 14:41:13 437.025 USB, Beacon 2401.1428
MaSat-1 02 Sep 14:31:51 14:36:09 29° 304° (NW) 14:40:37 437.345 MHz
ITAMSAT 1 02 Sep 14:34:41 14:39:37 48° 71° (ENE) 14:44:34 435.822 SSB
ISS 02 Sep 14:40:39 14:41:46 11° 11° (N) 14:42:53 145.800 FM
Uribyol 2 02 Sep 14:43:43 14:48:47 62° 73° (ENE) 14:53:54 436.500 FM
AO-7 02 Sep 14:45:15 14:48:24 13° 46° (NE) 14:51:32 29.400 - 29.500 MHz
PANSAT 02 Sep 14:49:22 14:51:00 12° 193° (SSW) 14:52:38 not established
TMSAT-1 02 Sep 14:59:47 15:04:11 28° 67° (ENE) 15:08:36 436.925 FM
AO-27 02 Sep 15:04:15 15:09:25 87° 256° (WSW) 15:14:38 436.795 MHz FM
UOSAT-12 02 Sep 15:18:39 15:23:10 46° 244° (WSW) 15:27:36 437.025 FM, 437.400 FM
Oscar 19 02 Sep 15:36:29 15:40:11 20° 267° (W) 15:43:56 437.125 CW, 437.150 USB
PCSat 02 Sep 15:38:44 15:39:39 10° 101° (ESE) 15:40:34 145.825 MHz
AO-Echo 02 Sep 15:39:24 15:43:58 35° 262° (W) 15:48:27 ?
Gurwin Techsat 1B 02 Sep 15:48:54 15:54:12 77° 257° (WSW) 15:59:32 435.225 FM
JAS-1B 02 Sep 16:03:18 16:12:32 46° 262° (W) 16:20:55 435.800 - 435.900 CW/SSB
ITAMSAT 1 02 Sep 16:15:43 16:19:20 19° 267° (W) 16:22:59 435.822 SSB
ISS 02 Sep 16:16:16 16:19:19 32° 30° (NNE) 16:22:21 145.800 FM
RS-15 02 Sep 16:24:55 16:35:36 50° 48° (NE) 16:46:38 29.354 - 29.394 USB, Beacon 29.352 USB
Uribyol 2 02 Sep 16:25:55 16:28:40 14° 269° (W) 16:31:26 436.500 FM
AO-7 02 Sep 16:31:20 16:39:27 59° 67° (ENE) 16:47:33 29.400 - 29.500 MHz
Uosat F 02 Sep 16:32:15 16:36:51 38° 70° (ENE) 16:41:28 435.120 FM
TMSAT-1 02 Sep 16:39:07 16:43:56 35° 263° (W) 16:48:47 436.925 FM
Sapphire 02 Sep 16:48:00 16:53:08 46° 112° (ESE) 16:58:18 437.095 MHz 1200 baud AX-25 AFSK
PCSat 02 Sep 17:16:48 17:22:12 90° 117° (ESE) 17:27:40 145.825 MHz
ISS 02 Sep 17:53:05 17:55:59 28° 226° (SW) 17:58:52 145.800 FM
OPAL 02 Sep 18:05:31 18:10:42 62° 103° (ESE) 18:15:50 ?
Uosat F 02 Sep 18:11:49 18:15:43 23° 265° (W) 18:19:39 435.120 FM
JAS-2 02 Sep 18:25:07 18:30:58 53° 73° (ENE) 18:36:16 435.800 - 435.900 CW/SSB, 435.910 FM
AO-7 02 Sep 18:25:34 18:32:34 30° 264° (W) 18:39:37 29.400 - 29.500 MHz
Sapphire 02 Sep 18:32:18 18:36:45 26° 310° (NW) 18:41:14 437.095 MHz 1200 baud AX-25 AFSK
RS-15 02 Sep 18:37:29 18:47:56 49° 250° (WSW) 18:58:50 29.354 - 29.394 USB, Beacon 29.352 USB
Hamsat 02 Sep 18:51:12 18:55:32 85° 258° (WSW) 18:59:55 145.90 MHz
PCSat 02 Sep 19:03:18 19:06:23 15° 317° (NW) 19:09:30 145.825 MHz
SO-67 02 Sep 19:11:23 19:13:46 18° 69° (ENE) 19:16:09 435.3500 MHz FM
OPAL 02 Sep 19:45:44 19:49:03 17° 300° (WNW) 19:52:21 ?
STRAND 1 02 Sep 19:54:37 19:59:19 36° 98° (E) 20:03:59 ?
JAS-2 02 Sep 20:12:05 20:16:16 19° 266° (W) 20:20:12 435.800 - 435.900 CW/SSB, 435.910 FM
HO-68 02 Sep 20:32:07 20:37:48 27° 60° (ENE) 20:43:29 435.675 MHz FM
SO-67 02 Sep 20:43:50 20:46:39 23° 264° (W) 20:49:29 435.3500 MHz FM
UKube-1 02 Sep 20:55:55 20:56:56 11° 62° (ENE) 20:57:57 145.840 MHz, 145.915 MHz
STRAND 1 02 Sep 21:34:09 21:38:19 26° 294° (WNW) 21:42:28 ?
KITSAT 1 02 Sep 21:52:47 21:55:08 11° 98° (E) 21:57:29 435.175 FM
HO-68 02 Sep 22:18:00 22:25:00 60° 258° (WSW) 22:32:04 435.675 MHz FM
UKube-1 02 Sep 22:28:13 22:32:32 70° 258° (WSW) 22:36:53 145.840 MHz, 145.915 MHz
Oscar 11 02 Sep 22:30:49 22:35:08 75° 76° (ENE) 22:39:30 145.825 FM, Beacon 2401.500 USB
MaSat-1 02 Sep 22:50:00 22:54:24 56° 62° (ENE) 22:58:10 437.345 MHz
Saudisat 1A 02 Sep 22:55:13 22:59:37 77° 302° (WNW) 23:04:03 436.775 MHz
FUNcube-1 02 Sep 23:05:45 23:09:54 69° 75° (ENE) 23:14:11 145.950 - 145.970 MHz USB
KITSAT 1 02 Sep 23:41:03 23:49:04 71° 115° (ESE) 23:57:07 435.175 FM
PCSat 03 Sep 00:26:28 00:26:39 10° 38° (NE) 00:26:50 145.825 MHz
MaSat-1 03 Sep 00:29:35 00:30:34 11° 262° (W) 00:31:30 437.345 MHz
Saudisat 1A 03 Sep 00:38:44 00:39:57 11° 321° (NW) 00:41:11 436.775 MHz
Sapphire 03 Sep 01:37:09 01:41:57 31° 52° (NE) 01:46:43 437.095 MHz 1200 baud AX-25 AFSK
KITSAT 1 03 Sep 01:38:19 01:45:09 29° 316° (NW) 01:52:01 435.175 FM
PCSat 03 Sep 02:05:56 02:11:18 56° 58° (ENE) 02:16:36 145.825 MHz
Oscar 19 03 Sep 02:09:29 02:13:00 18° 92° (E) 02:16:28 437.125 CW, 437.150 USB
